When you browse on this site, cookies collect data to enhance your experience and personalize the content and advertising you see.
Visit our Privacy Policy to learn more. By continuing to use the site, you agree to this use of cookies and data.
  • In Österreich
  • Länderverzeichnis
  • Für 7 Tage
  • Wassertemperatur
  • Wetterkarte
  • News
  • Widgets
  • user-avatar
    Anmelden

    Stündliche Wetter Rio Bueno

    Heute, 20 August, Dienstag

    Zeit Temperatur Niederschläge Wind Luftdruck Luftfeuchtigkeit
    00:00 +27°C° 0 mm 4 m/S 760 mmHg 93%
    01:00 +27°C° 0 mm 4 m/S 760 mmHg 93%
    02:00 +27°C° 0.1 mm 4 m/S 760 mmHg 94%
    03:00 +27°C° 0.1 mm 4 m/S 759 mmHg 94%
    04:00 +27°C° 0.1 mm 4 m/S 759 mmHg 94%
    05:00 +28°C° 0 mm 4 m/S 759 mmHg 93%
    06:00 +28°C° 0 mm 5 m/S 760 mmHg 92%
    07:00 +28°C° 0 mm 5 m/S 760 mmHg 91%
    08:00 +30°C° 0 mm 5 m/S 760 mmHg 82%
    09:00 +33°C° 0 mm 6 m/S 761 mmHg 73%
    10:00 +35°C° 0 mm 6 m/S 761 mmHg 64%
    11:00 +35°C° 0.3 mm 6 m/S 761 mmHg 64%
    12:00 +35°C° 0.3 mm 7 m/S 760 mmHg 64%
    13:00 +36°C° 0.3 mm 7 m/S 760 mmHg 64%
    14:00 +35°C° 0.6 mm 7 m/S 760 mmHg 68%
    15:00 +34°C° 0.6 mm 6 m/S 759 mmHg 72%
    16:00 +34°C° 0.6 mm 5 m/S 759 mmHg 75%
    17:00 +32°C° 0.8 mm 5 m/S 759 mmHg 80%
    18:00 +30°C° 0.8 mm 5 m/S 760 mmHg 85%
    19:00 +29°C° 0.8 mm 5 m/S 760 mmHg 90%
    20:00 +29°C° 0.1 mm 4 m/S 760 mmHg 91%
    21:00 +28°C° 0.1 mm 4 m/S 760 mmHg 92%
    22:00 +28°C° 0.1 mm 4 m/S 761 mmHg 92%
    23:00 +28°C° 0.1 mm 4 m/S 761 mmHg 93%

    Morgen, 21 August, Mittwoch

    Zeit Temperatur Niederschläge Wind Luftdruck Luftfeuchtigkeit
    00:00 +28°C° 0.1 mm 4 m/S 761 mmHg 93%
    01:00 +28°C° 0.1 mm 4 m/S 761 mmHg 94%
    02:00 +27°C° 0 mm 3 m/S 760 mmHg 94%
    03:00 +27°C° 0 mm 3 m/S 760 mmHg 94%
    04:00 +27°C° 0 mm 3 m/S 760 mmHg 94%
    05:00 +27°C° 0 mm 3 m/S 760 mmHg 92%
    06:00 +28°C° 0 mm 3 m/S 760 mmHg 90%
    07:00 +28°C° 0 mm 3 m/S 761 mmHg 88%
    08:00 +30°C° 0 mm 3 m/S 761 mmHg 80%
    09:00 +33°C° 0 mm 3 m/S 761 mmHg 72%
    10:00 +35°C° 0 mm 3 m/S 761 mmHg 64%
    11:00 +36°C° 0 mm 4 m/S 761 mmHg 62%
    12:00 +36°C° 0 mm 4 m/S 761 mmHg 59%
    13:00 +37°C° 0 mm 4 m/S 760 mmHg 57%
    14:00 +36°C° 0.6 mm 4 m/S 760 mmHg 64%
    15:00 +35°C° 0.6 mm 4 m/S 759 mmHg 71%
    16:00 +33°C° 0.6 mm 4 m/S 759 mmHg 78%
    17:00 +32°C° 0.6 mm 4 m/S 759 mmHg 83%
    18:00 +30°C° 0.6 mm 4 m/S 759 mmHg 87%
    19:00 +29°C° 0.6 mm 4 m/S 760 mmHg 92%
    20:00 +29°C° 0 mm 3 m/S 760 mmHg 92%
    21:00 +28°C° 0 mm 2 m/S 760 mmHg 92%
    22:00 +28°C° 0 mm 2 m/S 761 mmHg 92%
    23:00 +28°C° 0 mm 2 m/S 760 mmHg 92%

    übermorgen, 22 August, Donnerstag

    Zeit Temperatur Niederschläge Wind Luftdruck Luftfeuchtigkeit
    00:00 +27°C° 0 mm 1 m/S 760 mmHg 91%
    01:00 +27°C° 0 mm 1 m/S 760 mmHg 90%
    02:00 +27°C° 0 mm 1 m/S 760 mmHg 90%
    03:00 +27°C° 0 mm 1 m/S 760 mmHg 90%
    04:00 +27°C° 0 mm 1 m/S 759 mmHg 90%
    05:00 +27°C° 0 mm 1 m/S 760 mmHg 89%
    06:00 +28°C° 0 mm 1 m/S 760 mmHg 87%
    07:00 +28°C° 0 mm 1 m/S 760 mmHg 86%
    08:00 +30°C° 0 mm 1 m/S 760 mmHg 78%
    09:00 +32°C° 0 mm 2 m/S 761 mmHg 69%
    10:00 +35°C° 0 mm 2 m/S 761 mmHg 61%
    11:00 +35°C° 0.1 mm 2 m/S 761 mmHg 60%
    12:00 +36°C° 0.1 mm 3 m/S 760 mmHg 59%
    13:00 +36°C° 0.1 mm 3 m/S 760 mmHg 58%
    14:00 +35°C° 1.3 mm 3 m/S 759 mmHg 66%
    15:00 +34°C° 1.3 mm 3 m/S 759 mmHg 75%
    16:00 +31°C° 1.3 mm 3 m/S 759 mmHg 84%
    17:00 +30°C° 0.7 mm 3 m/S 759 mmHg 87%
    18:00 +30°C° 0.7 mm 3 m/S 759 mmHg 90%
    19:00 +29°C° 0.7 mm 3 m/S 759 mmHg 92%
    20:00 +28°C° 0.1 mm 3 m/S 759 mmHg 93%
    21:00 +28°C° 0.1 mm 2 m/S 760 mmHg 93%
    22:00 +28°C° 0.1 mm 2 m/S 760 mmHg 94%
    23:00 +28°C° 0.1 mm 2 m/S 760 mmHg 94%

    23 August, Freitag

    Zeit Temperatur Niederschläge Wind Luftdruck Luftfeuchtigkeit
    00:00 +27°C° 0.1 mm 2 m/S 760 mmHg 94%
    01:00 +27°C° 0.1 mm 2 m/S 759 mmHg 94%
    02:00 +27°C° 0 mm 2 m/S 759 mmHg 94%
    03:00 +27°C° 0 mm 2 m/S 759 mmHg 94%
    04:00 +27°C° 0 mm 2 m/S 759 mmHg 94%
    05:00 +27°C° 0 mm 2 m/S 759 mmHg 93%
    06:00 +27°C° 0 mm 2 m/S 759 mmHg 92%
    07:00 +28°C° 0 mm 2 m/S 760 mmHg 91%
    08:00 +30°C° 0 mm 1 m/S 760 mmHg 81%
    09:00 +31°C° 0 mm 1 m/S 760 mmHg 72%
    10:00 +33°C° 0 mm 1 m/S 760 mmHg 62%
    11:00 +34°C° 0.2 mm 2 m/S 760 mmHg 63%
    12:00 +34°C° 0.2 mm 2 m/S 760 mmHg 64%
    13:00 +34°C° 0.2 mm 3 m/S 760 mmHg 64%
    14:00 +34°C° 0.3 mm 3 m/S 759 mmHg 67%
    15:00 +33°C° 0.3 mm 4 m/S 759 mmHg 70%
    16:00 +33°C° 0.3 mm 4 m/S 758 mmHg 73%
    17:00 +32°C° 0.1 mm 4 m/S 759 mmHg 77%
    18:00 +29°C° 0.1 mm 4 m/S 759 mmHg 81%
    19:00 +28°C° 0.1 mm 4 m/S 759 mmHg 85%
    20:00 +28°C° 0 mm 4 m/S 759 mmHg 86%
    21:00 +27°C° 0 mm 3 m/S 760 mmHg 86%
    22:00 +27°C° 0 mm 3 m/S 760 mmHg 87%
    23:00 +27°C° 0 mm 3 m/S 760 mmHg 88%

    24 August, Samstag

    Zeit Temperatur Niederschläge Wind Luftdruck Luftfeuchtigkeit
    00:00 +26°C° 0 mm 3 m/S 760 mmHg 89%
    01:00 +26°C° 0 mm 2 m/S 759 mmHg 89%
    02:00 +26°C° 0 mm 2 m/S 759 mmHg 90%
    03:00 +26°C° 0 mm 2 m/S 759 mmHg 91%
    04:00 +26°C° 0 mm 1 m/S 759 mmHg 92%
    05:00 +26°C° 0 mm 1 m/S 759 mmHg 90%
    06:00 +27°C° 0 mm 1 m/S 760 mmHg 87%
    07:00 +27°C° 0 mm 1 m/S 760 mmHg 85%
    08:00 +29°C° 0 mm 2 m/S 760 mmHg 76%
    09:00 +31°C° 0 mm 3 m/S 760 mmHg 66%
    10:00 +34°C° 0 mm 4 m/S 761 mmHg 56%
    11:00 +35°C° 0 mm 4 m/S 760 mmHg 56%
    12:00 +36°C° 0 mm 5 m/S 760 mmHg 56%
    13:00 +36°C° 0 mm 6 m/S 760 mmHg 56%
    14:00 +35°C° 0.5 mm 6 m/S 759 mmHg 63%
    15:00 +34°C° 0.5 mm 6 m/S 759 mmHg 71%
    16:00 +33°C° 0.5 mm 6 m/S 759 mmHg 79%
    17:00 +30°C° 0.3 mm 5 m/S 759 mmHg 83%
    18:00 +29°C° 0.3 mm 5 m/S 759 mmHg 87%
    19:00 +28°C° 0.3 mm 4 m/S 759 mmHg 92%
    20:00 +28°C° 0 mm 4 m/S 760 mmHg 92%
    21:00 +28°C° 0 mm 4 m/S 760 mmHg 93%
    22:00 +27°C° 0 mm 3 m/S 761 mmHg 94%
    23:00 +27°C° 0 mm 3 m/S 760 mmHg 94%

    25 August, Sonntag

    Zeit Temperatur Niederschläge Wind Luftdruck Luftfeuchtigkeit
    00:00 +27°C° 0 mm 3 m/S 760 mmHg 94%
    01:00 +27°C° 0 mm 3 m/S 760 mmHg 94%
    02:00 +27°C° 0 mm 3 m/S 759 mmHg 94%
    03:00 +26°C° 0 mm 3 m/S 759 mmHg 94%
    04:00 +26°C° 0 mm 3 m/S 759 mmHg 94%
    05:00 +27°C° 0 mm 3 m/S 759 mmHg 92%
    06:00 +27°C° 0 mm 3 m/S 759 mmHg 90%
    07:00 +28°C° 0 mm 3 m/S 760 mmHg 88%
    08:00 +30°C° 0 mm 4 m/S 760 mmHg 78%
    09:00 +33°C° 0 mm 4 m/S 760 mmHg 69%
    10:00 +35°C° 0 mm 5 m/S 760 mmHg 59%
    11:00 +35°C° 0.1 mm 5 m/S 760 mmHg 59%
    12:00 +36°C° 0.1 mm 5 m/S 760 mmHg 58%
    13:00 +36°C° 0.1 mm 6 m/S 759 mmHg 58%
    14:00 +35°C° 0.9 mm 6 m/S 759 mmHg 66%
    15:00 +34°C° 0.9 mm 6 m/S 759 mmHg 74%
    16:00 +32°C° 0.9 mm 6 m/S 758 mmHg 82%
    17:00 +30°C° 0.3 mm 5 m/S 758 mmHg 85%
    18:00 +29°C° 0.3 mm 5 m/S 759 mmHg 88%
    19:00 +28°C° 0.3 mm 4 m/S 759 mmHg 92%
    20:00 +28°C° 0.2 mm 4 m/S 759 mmHg 92%
    21:00 +28°C° 0.2 mm 4 m/S 760 mmHg 93%
    22:00 +27°C° 0.2 mm 3 m/S 760 mmHg 93%
    23:00 +27°C° 0 mm 3 m/S 760 mmHg 93%
    Mehr zeigen